Content
SEND FEEDBACK

Daily
Averages
Monthly
Summary
United States of America

HILLSIDE, NEW JERSEY


Home > North America > United States > New Jersey
Elevation: 40 feet     Latitude: 40 40N     Longitude: 074 14W

WEATHER
 
SELECT A DAY
Number of Records: 193,270;   Date Range: 1/1/95 - 11/25/14
 
SHARE

PRINT THIS DATA

[ ← Previous Day ]
WEATHER ALMANAC - AUGUST 9, 2014
[ Next Day → ]
[ °C ]   °F
Weather ElementAverageHighLow
Temperature77.4 °F84.9 °F (4:51 pm)66.9 °F (2:51 am)
Dewpoint54.5 °F59 °F (12:51 pm)48.9 °F (3:51 pm)
Humidity46.7 %68 % (3:51 am)29 % (4:51 pm)
Barometer30.09 in30.12 in (6:51 am)30.06 in (5:51 am)
Wind Speed4.3 mph8.1 mph (1:51 am)
Weather ElementAverage
Visibility10 mi
Wind DirectionESE (124.3 °)

Weather ElementTotal
Precipitation---
Cooling Degree Days10.9 (Base 65)
Growing Degree Days25.9 (Base 50)
Averaged from 23 records on August 9, 2014
WEATHER CONDITIONS BREAKOUT
WIND DIRECTION BREAKOUT
WEATHER BY HOUR - AUGUST 9, 2014
[ °C ]   °F
Local TimeTemperatureDewpointHumidityBarometerVisibilityWind DirectionWind SpeedGust SpeedPrecipitationEventsConditions
12:51 AM73.0 °F54.0 °F51 %30.07 in10.0 miNNW (330°)6.9 mphPartly Cloudy
1:51 AM72.0 °F54.0 °F53 %30.07 in10.0 miNorth (350°)4.6 mphPartly Cloudy
2:51 AM71.6 °F55.4 °F57 %30.07 in10.0 miNW (320°)3.5 mphPartly Cloudy
3:51 AM70.0 °F55.0 °F59 %30.08 in10.0 miNNW (330°)5.8 mphPartly Cloudy
4:51 AM68.0 °F55.4 °F64 %30.08 in10.0 miCalmPartly Cloudy
5:51 AM66.9 °F55.9 °F68 %30.10 in10.0 miNNE (20°)3.5 mphPartly Cloudy
6:51 AM68.0 °F57.0 °F68 %30.12 in10.0 miNNE (30°)3.5 mphPartly Cloudy
7:51 AM71.6 °F57.2 °F60 %30.12 in10.0 miNE (40°)3.5 mphPartly Cloudy
8:51 AM75.2 °F57.2 °F53 %30.12 in10.0 miNNE (30°)4.6 mphClear
9:51 AM78.1 °F55.9 °F46 %30.11 in10.0 miNNE (20°)8.1 mphClear
10:51 AM81.0 °F55.9 °F42 %30.12 in10.0 miNorth (360°)8.1 mphPartly Cloudy
11:51 AM82.0 °F53.1 °F37 %30.11 in10.0 miNE (40°)6.9 mphScattered Clouds
12:51 PM84.0 °F51.1 °F32 %30.09 in10.0 miVariable3.5 mphScattered Clouds
1:51 PM82.9 °F51.1 °F33 %30.09 in10.0 miCalmScattered Clouds
2:51 PM84.2 °F51.8 °F33 %30.08 in10.0 miNNW (340°)8.1 mphMostly Cloudy
3:51 PM84.9 °F51.1 °F31 %30.07 in10.0 miEast (80°)5.8 mphMostly Cloudy
4:51 PM84.9 °F48.9 °F29 %30.06 in10.0 miVariable3.5 mphMostly Cloudy
5:51 PM84.9 °F53.1 °F33 %30.06 in10.0 miVariable4.6 mphScattered Clouds
6:51 PM84.0 °F53.1 °F34 %30.06 in10.0 miCalmScattered Clouds
7:51 PM81.0 °F54.0 °F39 %30.06 in10.0 miCalmScattered Clouds
8:51 PM80.1 °F55.0 °F42 %30.08 in10.0 miSE (130°)4.6 mphScattered Clouds
9:51 PM75.2 °F59.0 °F57 %30.09 in10.0 miSSW (200°)3.5 mphScattered Clouds
10:51 PM77.0 °F59.0 °F54 %30.11 in10.0 miWSW (240°)6.9 mphPartly Cloudy
Hourly data recorded from KEWR, located miles away from Hillside, New Jersey







STORIES FROM OUR PARTNERS